Location: Newark
(41.6500°N, 71.4833°W)
Time: 21:59:46
(UTC+00:00)

A-11 Canister half - Pass Details

Date: 20 January 2020
Orbit: 1517 x 1683 km, 47.2° (Epoch: 19 February)

Event Time Altitude Azimuth Distance (km) Brightness Sun altitude
Rises 04:27:20 0° 210° (SSW) 4,734 - -67.7°
Reaches altitude 10° 04:30:38 10° 203° (SSW) 3,731 - -67.9°
Maximum altitude 04:39:15 43° 137° (SE) 2,048 - -68.3°
Drops below altitude 10° 04:47:44 10° 70° (ENE) 3,681 - -68.5°
Sets 04:50:56 0° 64° (ENE) 4,665 - -68.6°
